Location: Poughquag
(41.6090°N, 73.6820°W)
Time: 14:50:44
(UTC-04:00)

Vanguard 2 - Pass Details

Date: 02 June 2020
Orbit: 552 x 2938 km, 32.9° (Epoch: 06 July)

Event Time Altitude Azimuth Distance (km) Brightness Sun altitude
Rises 16:15:40 0° 203° (SSW) 6,768 12.7 43.7°
Reaches altitude 10° 16:21:59 10° 190° (S) 5,629 12.2 42.5°
Maximum altitude 16:32:53 22° 149° (SSE) 4,228 11.3 40.5°
Drops below altitude 10° 16:41:39 10° 106° (ESE) 4,464 11.1 38.8°
Sets 16:45:47 0° 91° (E) 5,079 11.2 38.1°
